#timestamp,LO_Frequency,Hit,StdDev 
1610035215.3,286046999.8,N
1610035235.1,286047002.8,N
1610035255.9,286047001.7,N
1610035275.7,286047003.8,N
1610035295.6,286047004.0,N
1610035315.4,286047004.1,N
1610035335.2,286047002.5,N
1610035355.1,286047000.8,N
1610035356.0,286047000.8,N
1610035375.8,286047000.7,N
1610035395.7,286046998.4,N
1610035415.5,286046999.2,N
1610035435.3,286046997.7,N
1610035455.2,286046998.4,N
1610035475.0,286046996.6,N
1610035475.9,286046996.6,N
1610035495.7,286046999.3,N
1610035515.6,286046998.4,N
1610035535.4,286046999.2,N
1610035555.3,286046997.2,N
1610035575.1,286046996.8,N
1610035595.8,286046996.8,N
1610035615.7,286046997.8,N
1610035635.5,286046997.2,N
1610035655.4,286046999.0,N
1610035675.2,286047000.9,N
1610035695.0,286047001.2,N
1610035695.9,286047001.2,N
1610035715.8,286046998.9,N
1610035735.6,286047000.9,N
1610035755.4,286046999.0,N
1610035775.3,286046999.1,N
1610035795.1,286046998.3,N
1610035815.9,286047001.1,N
1610035835.7,286046999.9,N
1610035855.5,286047002.6,N
1610035875.4,286046999.9,N
1610035895.2,286046998.1,N
1610035915.1,286046999.4,N
1610035916.0,286046999.4,N
1610035935.8,286047001.2,N
1610035955.6,286046999.1,N
1610035975.5,286046997.4,N
1610035995.3,286046995.6,N
1610036015.1,286046998.0,N
1610036035.9,286046994.7,Y
1610036055.7,286046994.4,P
1610036075.6,286046994.2,N
1610036095.4,286046993.9,N
1610036115.2,286046994.9,N
1610036135.1,286046997.9,N
1610036136.0,286046997.9,N
1610036155.8,286046997.1,N
1610036175.7,286046997.4,N
1610036195.5,286046998.9,N
1610036215.3,286047001.1,N
1610036235.2,286046997.0,N
1610036255.0,286046997.4,N
1610036255.9,286046997.4,N
1610036275.7,286046994.9,N
1610036295.6,286046998.3,N
1610036315.4,286047000.4,N
1610036335.3,286047000.6,N
1610036355.1,286046998.3,N
1610036356.0,286046998.3,N
1610036375.8,286046999.3,N
1610036395.7,286046999.6,N
1610036415.5,286046998.6,N
1610036435.4,286047006.0,N
1610036455.2,286047005.1,N
1610036475.0,286047005.9,N
1610036475.9,286047005.9,N
1610036495.8,286046999.9,N
1610036515.6,286047000.6,N
1610036535.4,286046999.5,N
1610036555.3,286046998.2,N
1610036575.1,286046998.3,N
1610036595.9,286047000.3,N
1610036615.7,286046998.4,N
1610036635.5,286046998.9,N
1610036655.4,286046996.6,N
1610036675.2,286046999.0,N
1610036695.1,286046999.2,N
1610036696.0,286046999.2,N
1610036715.8,286046999.6,N
1610036735.6,286046997.5,N
1610036755.5,286046999.8,N
1610036775.3,286046999.9,N
1610036795.1,286047002.6,N
1610036815.9,286047000.1,N
1610036835.7,286047001.1,N
1610036855.6,286047001.4,N
1610036875.4,286047002.3,N
1610036895.2,286047000.4,N
1610036915.1,286047000.0,N
1610036916.0,286047000.0,N
1610036935.8,286047001.6,N
1610036955.7,286047000.8,N
1610036975.5,286046998.4,N
1610036995.3,286047000.3,N
1610037015.2,286046999.1,N
1610037035.0,286047000.8,N
1610037035.9,286047000.8,N
1610037055.8,286047000.8,N
1610037075.6,286047000.7,N
1610037095.4,286047001.5,N
1610037115.3,286047000.2,N
1610037135.1,286047002.5,N
1610037155.8,286047002.6,N
1610037175.7,286047002.0,N
1610037195.5,286047002.0,N
1610037215.4,286047000.4,N
1610037235.2,286047000.2,N
1610037255.0,286046998.5,N
1610037255.9,286046998.5,N
1610037275.8,286046999.4,N
1610037295.6,286046998.6,N
1610037315.5,286046999.1,N
1610037335.3,286046998.6,N
1610037355.1,286046999.8,N
1610037375.9,286046998.7,N
1610037395.7,286047001.2,N
1610037415.5,286046998.2,N
1610037435.4,286046998.2,N
1610037455.2,286046999.8,N
1610037475.1,286047002.6,N
1610037476.0,286047002.6,N
1610037495.8,286047002.7,N
1610037515.6,286046999.7,N
1610037535.5,286047002.4,N
1610037555.3,286047003.6,N
1610037575.2,286047002.3,N
1610037595.9,286046998.1,N
1610037615.7,286047001.1,N
1610037635.6,286047002.3,N
1610037655.4,286047004.2,N
1610037675.3,286047001.5,N
1610037695.1,286046999.7,N
1610037696.0,286046999.7,N
1610037715.8,286047005.6,Y
1610037735.7,286047004.2,P
1610037755.5,286047001.4,N
1610037775.3,286047002.7,N
1610037795.2,286046998.5,N
1610037815.0,286046998.5,N
1610037815.9,286046998.5,N
1610037835.8,286046999.1,N
1610037855.6,286046999.2,N
1610037875.4,286046999.3,N
1610037895.3,286046999.1,N
1610037915.1,286046999.2,N
1610037935.9,286046999.6,N
1610037955.7,286046999.1,N
1610037975.5,286046999.0,N
1610037995.4,286046999.3,N
1610038015.2,286046999.6,N
1610038035.0,286046999.7,N
1610038036.0,286046999.7,N
1610038055.8,286047001.3,N
1610038075.6,286047004.2,N
1610038095.5,286047004.1,N
1610038115.3,286047001.5,N
1610038135.1,286047003.8,N
1610038155.9,286047004.4,N
1610038175.7,286047001.8,N
1610038195.6,286047003.3,N
1610038215.4,286047001.3,N
1610038235.2,286047001.7,N
1610038255.1,286047002.7,N
1610038256.0,286047002.7,N
1610038275.8,286047002.4,N
1610038295.6,286047001.3,N
1610038315.5,286047002.9,N
1610038335.3,286047005.3,N
1610038355.2,286047003.3,N
1610038375.9,286047004.4,N
1610038395.7,286046999.7,N
1610038415.6,286047000.4,N
1610038435.4,286047000.4,N
1610038455.3,286047000.6,N
1610038475.1,286047002.8,N
1610038476.0,286047002.8,N
1610038495.8,286046998.6,N
1610038515.7,286047001.0,N
1610038535.5,286047000.7,N
1610038555.3,286047000.0,N
1610038575.2,286047002.0,N
1610038595.0,286047001.9,N
1610038595.9,286047001.9,N
1610038615.8,286047002.4,N
1610038635.6,286047001.7,N
1610038655.4,286047002.0,N
1610038675.3,286047001.3,N
1610038695.1,286047000.0,N
1610038715.8,286046998.6,N
1610038735.7,286046999.3,N
1610038755.5,286046996.8,N
1610038775.4,286046996.5,N
1610038795.2,286046999.4,N
